Location: Wanzleben
(52.0609°N, 11.4408°E)
Time: 18:39:37
(UTC+00:00)

ERS-1 Rocket - Pass Details

Date: 18 September 2020
Orbit: 754 x 757 km, 98.5° (Epoch: 22 October)

Event Time Altitude Azimuth Distance (km) Brightness Sun altitude
Exits shadow 20:57:23 60° 309° (NW) 870 3.4 -29.8°
Drops below altitude 10° 21:01:40 10° 341° (NNW) 2,297 6.3 -30.3°
Sets 21:04:00 0° 344° (NNW) 3,227 7.2 -30.5°
